Meeker, CO

11:55 AM MDT on October 17, 2017 (GMT -0600)
Meeker

Weather History for KEEO - February, 2013

Change the Weather History Date:

Tuesday, February 26, 2013

  Actual Average Record
Temperature  
Mean Temperature 16 °F 29 °F  
Max Temperature 25 °F 42 °F 50 °F (2006)
Min Temperature 7 °F 16 °F -7 °F (2002)
Degree Days  
Heating Degree Days 49 36  
Month to date heating degree days 1167 1052  
Since 1 July heating degree days 5905 5733  
Cooling Degree Days 0 0  
Month to date cooling degree days 0 0  
Year to date cooling degree days 0 0  
Moisture  
Dew Point 13 °F    
Average Humidity 74    
Maximum Humidity 92    
Minimum Humidity 55    
Precipitation  
Precipitation 0.02 in 0.04 in 0.17 in (2015)
Month to date precipitation 0.35 0.94  
Year to date precipitation 1.04 1.81  
Sea Level Pressure  
Sea Level Pressure 30.04 in    
Wind  
Wind Speed 4 mph (NW)    
Max Wind Speed 17 mph    
Max Gust Speed 21 mph    
Visibility 5 miles    
Events Snow    
T = Trace of Precipitation, MM = Missing Value Source: NWS Daily Summary

Daily Weather History Graph

Daily Weather History Graph

Search for Another Location

Airport or City:

Trip Planner

Search our weather history database for the weather conditions in past years. The results will help you decide how hot, cold, wet, or windy it might be!

Date:

Astronomy

Feb. 26, 2013 Rise Set
Actual Time 6:48 AM MST 6:00 PM MST
Civil Twilight 6:21 AM MST 6:27 PM MST
Nautical Twilight 5:50 AM MST 6:59 PM MST
Astronomical Twilight 5:18 AM MST 7:30 PM MST
Moon 7:20 PM MST (2/26) 6:53 AM MST (2/26)
Length of Visible Light 12h 06m
Length of Day
11h 11m
Full, 99% of the Moon is Illuminated
Feb 26
Full
Mar 4
Last Quarter
Mar 11
New
Mar 19
First Quarter
Mar 27
Full

Hourly Weather History & Observations

Time (MST) Temp. Windchill Dew Point Humidity Pressure Visibility Wind Dir Wind Speed Gust Speed Precip Events Conditions
12:53 AM 10.9 °F - 5.0 °F 77% 30.02 in 10.0 mi Calm Calm - N/A   Clear
1:53 AM 12.0 °F - 6.1 °F 77% 30.00 in 10.0 mi Calm Calm - N/A   Mostly Cloudy
2:53 AM 10.9 °F - 5.0 °F 77% 29.98 in 10.0 mi Calm Calm - N/A   Overcast
3:45 AM 14.0 °F - 8.6 °F 79% 29.85 in 2.5 mi Calm Calm - 0.00 in Snow Light Snow
3:53 AM 14.0 °F - 9.0 °F 80% 29.97 in 1.5 mi Calm Calm - 0.00 in Snow Light Snow
4:03 AM 14.0 °F - 10.4 °F 86% 29.85 in 3.0 mi Calm Calm - 0.00 in Snow Light Snow
4:27 AM 14.0 °F - 10.4 °F 86% 29.85 in 2.5 mi Calm Calm - 0.00 in Snow Light Snow
4:42 AM 15.8 °F - 10.4 °F 79% 29.85 in 1.8 mi Calm Calm - 0.00 in Snow Light Snow
4:51 AM 15.8 °F - 10.4 °F 79% 29.86 in 1.0 mi Calm Calm - 0.01 in Snow Light Snow
4:53 AM 15.1 °F - 12.0 °F 88% 29.96 in 0.8 mi Calm Calm - 0.01 in Snow Light Snow
5:06 AM 15.8 °F 8.6 °F 12.2 °F 86% 29.86 in 1.0 mi NNE 4.6 mph - 0.00 in Snow Light Snow
5:15 AM 15.8 °F 10.2 °F 12.2 °F 86% 29.86 in 1.5 mi NE 3.5 mph - 0.00 in Snow Light Snow
5:26 AM 15.8 °F - 12.2 °F 86% 29.86 in 3.0 mi Calm Calm - 0.00 in Snow Light Snow
5:42 AM 15.8 °F - 12.2 °F 86% 29.87 in 2.5 mi Calm Calm - 0.00 in Snow Light Snow
5:53 AM 16.0 °F 10.4 °F 12.9 °F 88% 30.03 in 3.0 mi SSW 3.5 mph - 0.00 in Snow Light Snow
6:53 AM 16.0 °F 8.8 °F 14.0 °F 92% 30.06 in 10.0 mi SW 4.6 mph - 0.00 in   Overcast
7:53 AM 18.0 °F - 15.1 °F 88% 30.07 in 10.0 mi Calm Calm - N/A   Overcast
8:53 AM 19.0 °F - 15.1 °F 85% 30.08 in 10.0 mi Calm Calm - 0.00 in   Overcast
9:53 AM 21.0 °F 14.6 °F 15.1 °F 78% 30.08 in 10.0 mi SSE 4.6 mph - N/A   Overcast
10:53 AM 24.1 °F 14.4 °F 12.9 °F 62% 30.07 in 10.0 mi North 9.2 mph - N/A   Overcast
11:53 AM 24.1 °F 12.0 °F 10.9 °F 57% 30.08 in 10.0 mi North 13.8 mph 20.7 mph 0.00 in   Overcast
12:53 PM 24.1 °F 15.2 °F 15.1 °F 69% 30.09 in 4.0 mi NW 8.1 mph - 0.00 in Snow Light Snow
1:16 PM 24.8 °F 15.3 °F 17.6 °F 74% 29.95 in 1.8 mi NNW 9.2 mph - 0.00 in Snow Light Snow
1:24 PM 23.0 °F 12.4 °F 17.6 °F 80% 29.95 in 1.0 mi NW 10.4 mph - 0.00 in Snow Light Snow
1:34 PM 24.8 °F 15.3 °F 17.6 °F 74% 29.95 in 2.0 mi NNW 9.2 mph - 0.00 in Snow Light Snow
1:48 PM 24.8 °F 13.4 °F 17.6 °F 74% 29.96 in 1.2 mi NNW 12.7 mph 17.3 mph 0.01 in Snow Light Snow
1:53 PM 24.1 °F 12.5 °F 16.0 °F 71% 30.10 in 1.2 mi NNW 12.7 mph 17.3 mph 0.01 in Snow Light Snow
2:05 PM 24.8 °F 12.9 °F 15.8 °F 69% 29.96 in 3.0 mi NW 13.8 mph - 0.00 in Snow Light Snow
2:41 PM 24.8 °F 14.6 °F 17.6 °F 74% 29.98 in 2.5 mi NW 10.4 mph - 0.00 in Snow Light Snow
2:53 PM 24.1 °F 14.4 °F 18.0 °F 77% 30.13 in 1.8 mi NW 9.2 mph - 0.00 in Snow Light Snow
3:06 PM 24.8 °F 16.1 °F 17.6 °F 74% 29.99 in 2.5 mi NW 8.1 mph - 0.00 in Snow Light Snow
3:13 PM 24.8 °F 16.1 °F 17.6 °F 74% 29.99 in 2.0 mi NW 8.1 mph - 0.00 in Snow Light Snow
3:17 PM 24.8 °F 15.3 °F 17.6 °F 74% 29.99 in 1.8 mi NNW 9.2 mph - 0.00 in Snow Light Snow
3:41 PM 24.8 °F 20.5 °F 19.4 °F 80% 30.00 in 2.0 mi West 3.5 mph - 0.00 in Snow Light Snow
3:45 PM 24.8 °F 20.5 °F 17.6 °F 74% 30.00 in 3.0 mi NW 3.5 mph - 0.00 in Snow Light Snow
3:53 PM 25.0 °F 18.1 °F 17.1 °F 72% 30.14 in 7.0 mi WNW 5.8 mph - 0.00 in   Overcast
4:21 PM 24.8 °F 19.1 °F 17.6 °F 74% 30.02 in 9.0 mi NE 4.6 mph - 0.00 in   Overcast
4:53 PM 24.1 °F 15.2 °F 15.1 °F 69% 30.16 in 5.0 mi NNW 8.1 mph - 0.00 in Snow Light Snow
5:53 PM 21.9 °F 11.7 °F 12.0 °F 66% 30.19 in 10.0 mi North 9.2 mph - 0.00 in   Overcast
6:53 PM 21.9 °F 17.2 °F 12.9 °F 68% 30.24 in 10.0 mi SW 3.5 mph - N/A   Overcast
7:53 PM 19.9 °F - 12.9 °F 74% 30.25 in 10.0 mi Calm Calm - N/A   Overcast
8:53 PM 12.9 °F - 8.1 °F 81% 30.31 in 10.0 mi Calm Calm - N/A   Mostly Cloudy
9:53 PM 9.0 °F - 3.9 °F 80% 30.35 in 10.0 mi Calm Calm - N/A   Overcast
10:28 PM 10.4 °F - 6.8 °F 85% 30.17 in 7.0 mi Calm Calm - 0.00 in Snow Light Snow
10:49 PM 8.6 °F - 3.2 °F 79% 30.17 in 10.0 mi Calm Calm - 0.00 in   Overcast
10:53 PM 8.1 °F - 3.9 °F 83% 30.35 in 10.0 mi Calm Calm - 0.00 in   Overcast
11:46 PM 12.2 °F - 8.6 °F 85% 30.18 in 2.5 mi Calm Calm - 0.00 in Snow Light Snow
11:53 PM 12.0 °F - 8.1 °F 84% 30.34 in 3.0 mi Calm Calm - 0.00 in Snow Light Snow